STARLINK-5431, 54792

Orbit data source: Space-Track

STARLINK-5431, 54792 is a payload satellite owned by SpaceX/Seattle (US) in LEO that was launched on Sat, 17 Dec 2022 UTC via an FALCON 9 launch vehicle from the Air Force Eastern Test Range (AFETR). Payload-class satellites include a variety of spacecraft equipped with specific instruments for various scientific and technological missions. These include communications satellites like Starlink; space stations such as the ISS; scientific satellites like the Hubble; Earth observation satellites from companies like Planet Labs, Umbra, and HawkEye 360; GPS; miniature CubeSats for education and research; and military/defense satellites.

Loading next visibility...
Identifier
54792, 2022-175AL
Orbit
LEO
Country
Flag of USUS
Related business
Manufacturer
SpaceX/Seattle
Mission
Operational Commercial Communications
Bus & Motor
STARLINK, Unknown motor
Mass
305 kg wet, ~290 kg dry
Launch date (UTC)
2022-12-17 (4 years ago)
Launch vehicle
FALCON 9
Launch site
Air Force Eastern Test Range (AFETR)
Object type
Payload
Rocket body
Debris
Shape & HBR
Box + 1 Pan, 10.1 m
Radar Cross Section
13.562 m², Large (>1 m²)

Expand to show TLE details & history
Last TLE update: 3 days ago

TLE from 3 days ago
0 STARLINK-5431
1 54792U 22175AL  26170.69629178  .00000706  00000-0  62447-4 0  9998
2 54792  53.1607 305.7217 0001148  87.3264 272.7859 15.08834087195324
Epoch: 2026-06-19T16:42Z
TLE epoch observation values (Epoch: 2026-06-19T16:42:39.609Z)
Latitude
-0.00002°
Longitude
147.13508°
Altitude
540.614 km
Speed
7.593 km/s
True Right ascension
20h 22m 53s
True Declination
0° 00' 00"
Sunlit
Object was in full shadow at epoch
Visualization orbit readout
Latitude
Unknown
Longitude
Unknown
Altitude
Unknown
Speed
Unknown
Apparent Right ascension
Unknown
Apparent Declination
Unknown
Sunlit
N/A
Visualization observer readout
Local Sidereal Time
21:34:29
Azimuth
Unknown
Elevation
Unknown
Doppler factor
Unknown
Orbital elements
Apogee altitude
540.81 km
Perigee altitude
539.221 km
Semi-major axis
6,918.152 km
Eccentricity
0.00011
Inclination
53.1607°
RAAN
305.7217°
Arg. of periapsis
87.3264°
True anomaly
272.77276°
Mean anomaly
272.7859°
Eccentric anomaly
272.77933°
Mean motion
3.77188 °/min
Orbital period
95.44 mins
BSTAR
0.000062447
Loading maneuver chart data...
Computing Atmospheric mass density...
Loading historical data...
Loading historical data...
Loading historical data...
Loading historical data...
Loading historical data...
Loading historical data...
Loading historical data...

Documentation

Showing up to 5 results
|